Location: ???? ???? ?????
(31.2680°N, 31.7283°E)
Time: 04:23:45
(UTC+00:00)

USA 267 - Pass Details

Date: 13 July 2020
Orbit: 1102 x 1106 km, 123.0° (Epoch: 09 August)

Event Time Altitude Azimuth Distance (km) Brightness Sun altitude
Exits shadow 22:44:51 52° 328° (NNW) 1,351 3.8 -36.0°
Drops below altitude 10° 22:49:35 10° 321° (NW) 2,959 5.9 -35.7°
Sets 22:52:03 0° 320° (NW) 3,919 6.6 -35.6°
